Weather Roundup
Issued by NWS

Home | Current Version | Previous Version | Graphics & Text | Print | Product List | Glossary Off
Versions: 1 2 3 4 5 6 7 8 9 10 11 12 13 14 15 16 17 18 19 20 21 22 23 24 25 26 27 28 29 30 31 32 33 34 35 36 37 38 39 40 41 42 43 44 45 46 47 48 49 50

701
NZUS93 KARX 250510
HRRWXR

CURRENT HOURLY OBSERVATIONS ACROSS
MUCH OF THE UPPER MISSISSIPPI VALLEY
NATIONAL WEATHER SERVICE LA CROSSE WI
1200 AM CDT WED APR 25 2018


...SOUTHEAST MINNESOTA...


CITY           SKY/WX    TMP DP  RH WIND       PRES   REMARKS
ROCHESTER      FAIR      42  36  79 NW7       30.20S
ROCHESTER/MAYO FAIR      46  36  69 NW6       30.20S
WINONA         FAIR      48  36  61 CALM      30.18S
AUSTIN         FAIR      43  37  81 N3        30.20S
ALBERT LEA     FAIR      45  34  65 N7        30.21S
DODGE CENTER   FAIR      43  36  75 N3        30.21S
PRESTON        FAIR      44  34  69 N6        30.19S
OWATONNA       FAIR      41  34  75 CALM      30.22S
FARIBAULT      NOT AVBL
$$

...ELSEWHERE IN MINNESOTA...


CITY           SKY/WX    TMP DP  RH WIND       PRES   REMARKS
MINNEAPOLIS    FAIR      48  27  44 N16       30.23R
INTNL FALLS    FAIR      25  23  92 CALM      30.30S
DULUTH         FAIR      34  22  61 NW3       30.27R
RED WING       FAIR      37  30  75 NW3       30.20S
REDWOOD FALLS  CLEAR     41  33  73 NW8       30.26S
MANKATO        FAIR      43  34  70 NW6       30.24S
WORTHINGTON    CLOUDY    38  33  82 N13       30.27R WCI  30
FAIRMONT       CLOUDY    44  37  76 N13       30.23F
$$

...SOUTHWEST WISCONSIN...


CITY           SKY/WX    TMP DP  RH WIND       PRES   REMARKS
LA CROSSE      MOCLDY    51  35  54 N8        30.18S
PRAIRIE DU CHI MOCLDY    54  32  43 N6        30.13R
BOSCOBEL       FAIR      54  34  46 N10G18    30.14R
LONE ROCK      CLOUDY    54  33  45 N13G22    30.12R
PLATTEVILLE    CLOUDY    55  36  47 N22G30    30.08R
FORT MC COY    CLOUDY    47  37  68 N7        30.18S
MAUSTON-NEW LI CLOUDY    49  35  57 N6        30.15S
VIROQUA        FAIR      46  37  71 N9        30.15S
WIS DELLS      CLOUDY    51  30  43 NE9G18    30.13R
$$

...ELSEWHERE IN WISCONSIN...


CITY           SKY/WX    TMP DP  RH WIND       PRES   REMARKS
MILWAUKEE      FAIR      43  33  68 N23G30    30.07S
MADISON        CLOUDY    51  33  50 NE14      30.09R
GREEN BAY      CLOUDY    43  32  65 N8        30.14S
EAU CLAIRE     FAIR      37  34  89 N3        30.19S
BLACK RVR FLS  FAIR      44  33  65 N5        30.18S
MEDFORD        FAIR      35  34  94 N3        30.17S
WAUSAU         FAIR      40  38  93 N7        30.14S
WIS RAPIDS     MOCLDY    45  35  68 NE7       30.16S
MARSHFIELD     FAIR      41  36  82 N9        30.15S
RICE LAKE      FAIR      41  28  60 NW7       30.23R
$$

...NORTHEAST IOWA...


CITY           SKY/WX    TMP DP  RH WIND       PRES   REMARKS
WATERLOO       FAIR      50  38  63 N16       30.14R
DUBUQUE        FAIR      57  35  43 N17G24    30.07R
DECORAH        FAIR      50  36  57 N15G24    30.15R
MASON CITY     CLOUDY    46  39  76 N13       30.20S
CHARLES CITY   FAIR      46  39  76 N12       30.17S
OELWEIN        FAIR      50  37  62 N14       30.14R
$$

...ELSEWHERE IN IOWA...


CITY           SKY/WX    TMP DP  RH WIND       PRES   REMARKS
DES MOINES     MOCLDY    54  42  64 N15       30.16S
IOWA CITY      FAIR      62  39  42 N15G22    30.07S
FORT DODGE     MOCLDY    48  43  82 N7        30.21S
MARSHALLTOWN   MOCLDY    52  40  63 N17       30.14S
CEDAR RAPIDS   FAIR      56  40  55 N12       30.07S
$$

...NORTHERN ILLINOIS...


CITY           SKY/WX    TMP DP  RH WIND       PRES   REMARKS
CHICAGO-OHARE  FAIR      48  44  86 N10       30.02R
CHICAGO-MIDWAY FAIR      50  45  83 N8        30.02R
MOLINE         FAIR      64  39  39 N12       30.00S
ROCKFORD       CLOUDY    53  46  77 NE12      30.06R
PEORIA           N/A     57  42  57 NE6       30.00S
$$

NOTE: "FAIR" INDICATES FEW OR NO CLOUDS BELOW 12,000 FEET WITH NO
SIGNIFICANT WEATHER AND/OR OBSTRUCTIONS TO VISIBILITY. WIND
SPEEDS ARE IN MILES-PER-HOUR.




USA.gov is the U.S. government's official web portal to all federal, state and local government web resources and services.